Regional Weather Roundup
Issued by NWS New Orleans/Baton Rouge, LA

Home | Current Version | Previous Version | Graphics & Text | Print | Product List | Glossary On
Versions: 1 2 3 4 5 6 7 8 9 10 11 12 13 14 15 16 17 18 19 20 21 22 23 24 25 26 27 28 29 30 31 32 33 34 35 36 37 38 39 40 41 42 43 44 45 46 47 48 49 50
401
ASUS44 KLIX 061905
RWRLIX
NEW ORLEANS REGIONAL WEATHER ROUNDUP
NATIONAL WEATHER SERVICE NEW ORLEANS LA
100 PM CST FRI MAR 06 2015

NOTE: "FAIR" INDICATES FEW OR NO CLOUDS BELOW 12,000 FEET WITH NO
      SIGNIFICANT WEATHER AND/OR OBSTRUCTIONS TO VISIBILITY.
      SKY/WX - SKY CONDITION AND SIGNIFICANT WEATHER.
      TMP - AIR TEMPERATURE.     DP    - DEWPOINT TEMPERATURE.
      RH  - RELATIVE HUMIDITY.   PRES  - PRESSURE.
      HI  - HEAT INDEX.          WCI   - WIND CHILL INDEX.

*  THESE STATIONS ARE NOT NWS OR FAA STATIONS AND ARE NOT UNDER
   NWS QUALITY CONTROL.

LAZ038-040-048-061>063-065>067-069-062000-
SOUTHEAST LOUISIANA

CITY           SKY/WX    TMP DP  RH WIND       PRES   REMARKS
N.O. AUDUBON   NOT AVBL
N.O. INTL ARPT PTSUNNY   48  20  32 N13       30.47F
N.O. LAKEFRONT MOSUNNY   51  19  28 N12       30.47F
SLIDELL        MOSUNNY   50  15  24 N13G21    30.45F
BATON ROUGE    SUNNY     50  13  22 N9G17     30.49F
BOOTHVILLE     MOSUNNY   46  28  49 N9G21     30.44F
BELLE CHASSE   NOT AVBL
BOGALUSA*      NOT AVBL
GALLIANO*      NOT AVBL
NEW ROADS*     NOT AVBL
GONZALES*      NOT AVBL
HAMMOND*       NOT AVBL
HOUMA*         PTSUNNY   50  19  29 N17       30.46F
PORT FOURCHON* NOT AVBL

$$

MSZ070-080>082-062000-
SOUTHERN MISSISSIPPI

CITY           SKY/WX    TMP DP  RH WIND       PRES   REMARKS
MCCOMB         SUNNY     49  11  21 NE8       30.48F
GULFPORT       MOSUNNY   50  13  22 N15G22    30.43F
BILOXI         MOSUNNY   51  13  22 N16G22    30.42F
PASCAGOULA     SUNNY     51  13  21 N16G25    30.42F
STENNIS ARPT*  SUNNY     50   5  16 N17       30.45F

$$

COASTAL OBSERVATIONS
LAKE AND NEARSHORE STATIONS

STATION/POSITION TIME  TEMP    WIND        PRES    WAVE
                       AIR SEA DIR/SP/G            HT/PER
                 (UTC) (F)     (DEG/KT/KT) (MB)    (FT/S)
PASCAGOULA       1821   49     360/ 13/ 20 1030.1
WAVELAND YACHT   1821   45 50   20/ 11/ 16 1031.1
GRAND ISLE       1821   45 56   20/ 17/ 23 1031.6
SOUTHWEST PASS   1821   44 43   10/ 20/ 23 1031.2
NEW CANAL        1821   43      10/ 12/ 14 1032.6
SHELL BEACH      1821   44 52   10/ 14/ 19 1031.6

OFFSHORE STATIONS

STATION/POSITION TIME  TEMP    WIND        PRES    WAVE
                       AIR SEA DIR/SP/G            HT/PER
                 (UTC) (F)     (DEG/KT/KT) (MB)    (FT/S)

$$




USA.gov is the U.S. government's official web portal to all federal, state and local government web resources and services.